Weather observations for the past three days for
Hilo, Hilo International Airport
Imperial (Metric)
Date Time (hst) Wind (mph) Vis. (mi.) Weather Sky Cond. Temperature (ºF) Relative Humidity Wind Chill (°F) Heat Index (°F) Pressure Precipitation (in)
Air Dwpt 6 hour altimeter (in) sea level (mb) 1 hr 3 hr 6 hr
Max. Min.
22 05:53 W 3 4.00 Light Rain Fog/Mist FEW004 BKN010 OVC014 72 72 100% 30.02 1016.5 0.17
22 04:53 NW 6 2.50 Rain Fog/Mist OVC023 73 72 96% 30.01 1016.2 0.07 0.14
22 03:53 W 5 6.00 Fog/Mist SCT010 BKN018 OVC035 72 72 100% 30.01 1016.0 0.03
22 02:53 Calm 2.50 Rain Fog/Mist FEW006 OVC020 72 72 100% 30.02 1016.3 0.04
22 01:53 N 5 9.00 Overcast SCT028 OVC036 73.9 71.1 78.1 73 91% 30.03 1016.6
22 00:53 SW 3 10.00 Overcast OVC044 73.9 72 94% 30.05 1017.4
21 23:53 W 5 10.00 Mostly Cloudy BKN046 BKN055 73.9 72 94% 30.07 1018.1
21 22:53 NW 5 10.00 Overcast BKN039 OVC055 73.9 73 97% 30.08 1018.4
21 21:53 Calm 10.00 Overcast BKN041 OVC048 77 73 88% 78 30.08 1018.4
21 20:53 Calm 10.00 Overcast BKN038 OVC055 78.1 70 76% 80 30.07 1018.0
21 19:53 NE 3 10.00 Overcast FEW045 OVC050 78.1 72 84 77 82% 80 30.06 1017.7
21 18:53 N 5 10.00 Overcast BKN047 OVC055 78.1 71.1 79% 80 30.05 1017.4
21 17:53 NE 5 10.00 Overcast BKN049 OVC055 80.1 72 76% 84 30.04 1017.1
21 16:53 N 7 10.00 Overcast BKN037 OVC049 80.1 73 79% 84 30.04 1017.0
21 15:53 NE 12 10.00 Overcast OVC042 81 70 69% 84 30.04 1017.1
21 14:53 NE 10 10.00 Overcast OVC055 82 69.1 65% 85 30.04 1017.2
21 13:53 NE 10 10.00 Overcast OVC050 82.9 69.1 84 75 63% 87 30.05 1017.4
21 12:53 NE 7 10.00 A Few Clouds FEW055 84 69.1 61% 88 30.06 1017.9
21 11:53 Vrbl 7 10.00 Fair CLR 82 68 63% 85 30.09 1018.6
21 10:53 Vrbl 6 10.00 Overcast BKN030 OVC038 80.1 69.1 69% 83 30.1 1019.1
21 09:53 W 5 10.00 Mostly Cloudy SCT017 BKN027 BKN044 78.1 71.1 79% 80 30.1 1019.2
21 08:53 NE 6 10.00 Overcast OVC034 78.1 69.1 74% 80 30.1 1019.1
21 07:53 NE 7 10.00 Mostly Cloudy FEW018 BKN042 75.9 70 77 71.1 82% 77 30.09 1018.8
21 06:53 W 6 10.00 A Few Clouds FEW050 73.9 70 88% 30.08 1018.5
21 05:53 W 6 10.00 A Few Clouds FEW042 71.1 69.1 94% 30.06 1017.9
21 04:53 SW 3 10.00 Partly Cloudy FEW024 FEW030 SCT046 72 69.1 91% 30.05 1017.4
21 03:53 SW 3 10.00 Overcast SCT023 OVC042 72 69.1 91% 30.04 1017.1
21 02:53 SW 3 10.00 Overcast OVC036 73 71.1 94% 30.04 1017.1
21 01:53 Vrbl 3 10.00 Partly Cloudy FEW021 FEW026 SCT034 73.9 71.1 75.9 73 91% 30.05 1017.5 0.04
21 00:53 SW 3 10.00 Overcast BKN021 BKN029 OVC055 73 72 96% 30.07 1018.1
20 23:53 SW 5 10.00 Overcast SCT023 BKN030 OVC037 73.9 71.1 91% 30.09 1018.7
20 22:53 SW 5 10.00 Overcast OVC024 73.9 72 94% 30.09 1018.9 0.01 0.04
20 21:53 Vrbl 3 7.00 Light Rain SCT021 BKN027 OVC033 73.9 72 94% 30.09 1018.9 0.03
20 20:53 SW 3 10.00 Overcast SCT021 BKN026 OVC060 73.9 71.1 91% 30.08 1018.6
20 19:53 NW 6 7.00 Light Rain SCT020 BKN028 OVC055 73.9 72 82.9 73 94% 30.07 1018.1 0.01
20 18:53 NW 8 10.00 Overcast FEW020 BKN037 OVC044 73.9 71.1 91% 30.05 1017.6 0.01
20 17:53 E 15 6.00 Overcast with Haze BKN033 BKN047 OVC060 75.9 71.1 85% 76 30.04 1017.2
20 16:53 N 8 10.00 A Few Clouds FEW020 FEW027 FEW037 79 70 74% 82 30.03 1016.6
20 15:53 NE 6 10.00 Mostly Cloudy FEW024 BKN030 80.1 71.1 74% 84 30.03 1016.8
20 14:53 NE 7 10.00 Mostly Cloudy BKN035 82.9 70 65% 87 30.04 1017.0
20 13:53 Vrbl 6 10.00 Mostly Cloudy BKN060 82 69.1 82.9 75.9 65% 85 30.05 1017.3
20 12:53 NE 9 10.00 Mostly Cloudy FEW030 BKN037 BKN050 82 70 67% 86 30.06 1017.8
20 11:53 NE 7 10.00 Overcast SCT035 OVC060 82 66.9 60% 85 30.08 1018.4
20 10:53 E 8 10.00 Partly Cloudy FEW035 SCT044 81 68 65% 84 30.1 1019.0
20 09:53 E 6 10.00 Mostly Cloudy BKN044 79 70 74% 82 30.11 1019.5
20 08:53 Calm 10.00 Overcast OVC060 79 66.9 67% 81 30.11 1019.3
20 07:53 W 6 10.00 Partly Cloudy SCT050 77 69.1 78.1 70 77% 79 30.1 1019.2 0.02
20 06:53 Calm 10.00 Mostly Cloudy FEW026 SCT038 BKN055 72 71.1 97% 30.1 1019.0
20 05:53 W 5 10.00 Overcast FEW030 OVC038 71.1 70 96% 30.08 1018.5 0.01
20 04:53 W 3 10.00 Light Rain FEW019 SCT031 OVC045 71.6 69.8 94% 30.06 0.0
20 03:53 W 5 10.00 Overcast SCT039 SCT049 OVC055 71.1 69.1 94% 30.06 1017.7
20 02:53 SW 5 10.00 Overcast BKN022 BKN034 OVC050 71.1 69.1 94% 30.07 1017.9
20 01:53 W 6 10.00 Overcast FEW025 BKN045 OVC060 70 69.1 73.9 70 97% 30.07 1018.2 0.02 0.11
20 00:53 W 7 10.00 Overcast FEW024 BKN042 OVC050 70 69.1 97% 30.09 1018.9 0.02
19 23:53 SE 5 10.00 Overcast FEW016 SCT045 OVC070 72 70 94% 30.11 1019.4
19 22:53 Calm 10.00 Overcast FEW015 BKN031 OVC046 73 71.1 94% 30.12 1019.9 0.07
19 21:53 W 7 10.00 Overcast FEW016 OVC034 72 71.1 97% 30.12 1019.7 0.02
19 20:53 Calm 10.00 Overcast SCT020 BKN025 OVC038 73 72 96% 30.1 1019.0 0.05
19 19:53 SW 5 10.00 Overcast FEW024 BKN044 OVC060 73.9 69.1 81 73 85% 30.08 1018.6
19 18:53 W 7 10.00 Overcast SCT043 OVC070 73 69.1 87% 30.06 1017.9
19 17:53 NW 9 10.00 Overcast FEW030 SCT039 OVC065 75.9 68 77% 77 30.05 1017.4
19 16:53 Vrbl 3 G 16 6.00 Light Rain OVC044 75.9 66 72% 77 30.04 1017.0
19 15:53 NE 17 10.00 Overcast FEW019 BKN032 OVC060 79 70 74% 82 30.04 1016.9
19 14:53 E 17 G 23 10.00 Mostly Cloudy BKN060 79 71.1 77% 82 30.04 1017.1
19 13:53 E 10 10.00 Overcast OVC065 81 68 82.9 73 65% 84 30.05 1017.4
19 12:53 NE 13 10.00 Partly Cloudy FEW041 SCT065 82 70 67% 86 30.06 1017.9
19 11:53 N 7 10.00 Mostly Cloudy BKN060 81 70 69% 84 30.08 1018.4
19 10:53 Vrbl 5 10.00 Overcast FEW030 OVC060 81 70 69% 84 30.09 1018.7
19 09:53 Calm 10.00 Partly Cloudy SCT055 78.1 66.9 69% 80 30.09 1018.8
19 08:53 NW 8 10.00 Partly Cloudy SCT055 75.9 69.1 79% 77 30.1 1019.0
19 07:53 W 6 10.00 Overcast SCT020 BKN037 OVC048 73 70 73 71.1 90% 30.1 1019.0 0.02 0.12
19 06:53 SW 7 10.00 Overcast SCT047 OVC055 71.1 68 90% 30.08 1018.5
Date Time (hst) Wind (mph) Vis. (mi.) Weather Sky Cond. Air Dwpt Max. Min. Relative Humidity Wind Chill (°F) Heat Index (°F) altimeter (in) sea level (mb) 1 hr 3 hr 6 hr
6 hour
Temperature (ºF) Pressure Precipitation (in)